�v������,��1(���x),�����t���O,��2���x),�����t���O,�������x,�����t���O,�C�ۑ�(���x),�����t���O,�C�ۑ�(���x),�����t���O
1/1/2004 0:00,15.7,0,14.5,0,16.8,0,8,0,61.8,0
1/1/2004 0:15,15.7,0,14.5,0,16.8,0,8,0,61.5,0
1/1/2004 0:30,15.7,0,14.5,0,16.8,0,7.9,0,61.3,0
1/1/2004 0:45,15.7,0,14.5,0,16.8,0,7.9,0,61,0
1/1/2004 1:00,15.7,0,14.5,0,16.8,0,7.9,0,60.8,0
1/1/2004 1:15,15.6,0,14.5,0,16.8,0,8.2,0,59,0
1/1/2004 1:30,15.6,0,14.5,0,16.8,0,8.5,0,57.3,0
1/1/2004 1:45,15.6,0,14.5,0,16.8,0,8.9,0,55.5,0
1/1/2004 2:00,15.6,0,14.5,0,16.8,0,9.2,0,53.8,0
1/1/2004 2:15,15.6,0,14.4,0,16.8,0,9.1,0,54.3,0
1/1/2004 2:30,15.6,0,14.4,0,16.8,0,9,0,54.8,0
1/1/2004 2:45,15.5,0,14.4,0,16.8,0,9,0,55.3,0
1/1/2004 3:00,15.5,0,14.4,0,16.8,0,8.9,0,55.8,0
1/1/2004 3:15,15.5,0,14.4,0,16.8,0,8.8,0,55.5,0
1/1/2004 3:30,15.5,0,14.4,0,16.8,0,8.8,0,55.3,0
1/1/2004 3:45,15.5,0,14.4,0,16.8,0,8.7,0,55,0
1/1/2004 4:00,15.5,0,14.4,0,16.8,0,8.7,0,54.8,0
1/1/2004 4:15,15.5,0,14.4,0,16.8,0,8.7,0,53.3,0
1/1/2004 4:30,15.5,0,14.4,0,16.8,0,8.8,0,51.8,0
1/1/2004 4:45,15.5,0,14.4,0,16.8,0,8.8,0,50.3,0
1/1/2004 5:00,15.4,0,14.4,0,16.8,0,8.9,0,48.8,0
1/1/2004 5:15,15.4,0,14.4,0,16.8,0,9,0,47.8,0
1/1/2004 5:30,15.4,0,14.4,0,16.8,0,9,0,46.8,0
1/1/2004 5:45,15.4,0,14.4,0,16.8,0,9.1,0,45.8,0
1/1/2004 6:00,15.4,0,14.4,0,16.8,0,9.2,0,44.8,0
1/1/2004 6:15,15.4,0,14.4,0,16.7,0,9,0,45,0
1/1/2004 6:30,15.4,0,14.4,0,16.7,0,8.8,0,45.3,0
1/1/2004 6:45,15.4,0,14.4,0,16.7,0,8.7,0,45.5,0
1/1/2004 7:00,15.4,0,14.4,0,16.7,0,8.5,0,45.8,0
1/1/2004 7:15,15.4,0,14.4,0,16.7,0,8.2,0,48,0
1/1/2004 7:30,15.4,0,14.4,0,16.7,0,8,0,50.3,0
1/1/2004 7:45,15.4,0,14.4,0,16.7,0,7.7,0,52.5,0
1/1/2004 8:00,15.3,0,14.4,0,16.7,0,7.5,0,54.8,0
1/1/2004 8:15,15.3,0,14.4,0,16.7,0,7.8,0,54,0
1/1/2004 8:30,15.3,0,14.5,0,16.7,0,8.1,0,53.3,0
1/1/2004 8:45,15.5,0,14.5,0,16.7,0,8.5,0,52.5,0
1/1/2004 9:00,15.9,0,14.5,0,16.7,0,8.8,0,51.8,0
1/1/2004 9:15,16.2,0,14.6,0,16.7,0,9.2,0,49.8,0
1/1/2004 9:30,16.5,0,14.6,0,16.7,0,9.6,0,47.8,0
1/1/2004 9:45,16.8,0,14.6,0,16.7,0,10,0,45.8,0
1/1/2004 10:00,17,0,14.7,0,16.7,0,10.4,0,43.8,0
1/1/2004 10:15,17.1,0,14.7,0,16.7,0,10.7,0,43.3,0
1/1/2004 10:30,17.1,0,14.7,0,16.7,0,11,0,42.8,0
1/1/2004 10:45,17.2,0,14.7,0,16.7,0,11.4,0,42.3,0
1/1/2004 11:00,17.2,0,14.7,0,16.7,0,11.7,0,41.8,0
1/1/2004 11:15,17.1,0,14.7,0,16.7,0,11.6,0,41,0
1/1/2004 11:30,17.2,0,14.8,0,16.7,0,11.5,0,40.3,0
1/1/2004 11:45,17.3,0,14.8,0,16.7,0,11.5,0,39.5,0
1/1/2004 12:00,17.4,0,14.8,0,16.7,0,11.4,0,38.8,0
1/1/2004 12:15,17.4,0,14.8,0,16.7,0,11.4,0,39.3,0
1/1/2004 12:30,17.3,0,14.8,0,16.7,0,11.4,0,39.8,0
1/1/2004 12:45,17.2,0,14.8,0,16.7,0,11.5,0,40.3,0
1/1/2004 13:00,17.1,0,14.8,0,16.7,0,11.5,0,40.8,0
1/1/2004 13:15,17,0,14.8,0,16.7,0,11.5,0,41,0
1/1/2004 13:30,16.9,0,14.8,0,16.7,0,11.5,0,41.3,0
1/1/2004 13:45,16.8,0,14.8,0,16.7,0,11.5,0,41.5,0
1/1/2004 14:00,16.7,0,14.8,0,16.7,0,11.5,0,41.8,0
1/1/2004 14:15,16.7,0,14.8,0,16.7,0,11.6,0,42.8,0
1/1/2004 14:30,16.6,0,14.8,0,16.7,0,11.7,0,43.8,0
1/1/2004 14:45,16.6,0,14.8,0,16.7,0,11.8,0,44.8,0
1/1/2004 15:00,16.5,0,14.8,0,16.7,0,11.9,0,45.8,0
1/1/2004 15:15,16.5,0,14.8,0,16.7,0,11.7,0,47.5,0
1/1/2004 15:30,16.5,0,14.7,0,16.7,0,11.6,0,49.3,0
1/1/2004 15:45,16.4,0,14.7,0,16.7,0,11.4,0,51,0
1/1/2004 16:00,16.4,0,14.7,0,16.7,0,11.3,0,52.8,0
1/1/2004 16:15,16.4,0,14.7,0,16.7,0,11.2,0,53.3,0
1/1/2004 16:30,16.3,0,14.7,0,16.7,0,11,0,53.8,0
1/1/2004 16:45,16.3,0,14.7,0,16.7,0,10.9,0,54.3,0
1/1/2004 17:00,16.3,0,14.7,0,16.7,0,10.8,0,54.8,0
1/1/2004 17:15,16.3,0,14.7,0,16.7,0,10.6,0,56,0
1/1/2004 17:30,16.2,0,14.7,0,16.7,0,10.3,0,57.3,0
1/1/2004 17:45,16.2,0,14.7,0,16.7,0,10.1,0,58.5,0
1/1/2004 18:00,16.2,0,14.7,0,16.7,0,9.9,0,59.8,0
1/1/2004 18:15,16.2,0,14.7,0,16.7,0,9.7,0,61.3,0
1/1/2004 18:30,16.1,0,14.7,0,16.7,0,9.5,0,62.8,0
1/1/2004 18:45,16.1,0,14.7,0,16.7,0,9.4,0,64.3,0
1/1/2004 19:00,16.1,0,14.6,0,16.7,0,9.2,0,65.8,0
1/1/2004 19:15,16.1,0,14.6,0,16.7,0,9.1,0,66.3,0
1/1/2004 19:30,16,0,14.6,0,16.7,0,9.1,0,66.8,0
1/1/2004 19:45,16,0,14.6,0,16.7,0,9,0,67.3,0
1/1/2004 20:00,16,0,14.6,0,16.7,0,9,0,67.8,0
1/1/2004 20:15,16,0,14.6,0,16.7,0,9,0,68.1,0
1/1/2004 20:30,16,0,14.6,0,16.7,0,8.9,0,68.3,0
1/1/2004 20:45,15.9,0,14.6,0,16.7,0,8.9,0,68.6,0
1/1/2004 21:00,15.9,0,14.6,0,16.7,0,8.9,0,68.8,0
1/1/2004 21:15,15.9,0,14.6,0,16.7,0,9,0,68.8,0
1/1/2004 21:30,15.9,0,14.6,0,16.7,0,9.1,0,68.8,0
1/1/2004 21:45,15.9,0,14.6,0,16.7,0,9.3,0,68.8,0
1/1/2004 22:00,15.8,0,14.6,0,16.7,0,9.4,0,68.8,0
1/1/2004 22:15,15.8,0,14.6,0,16.7,0,9.3,0,69.3,0
1/1/2004 22:30,15.8,0,14.6,0,16.7,0,9.3,0,69.8,0
1/1/2004 22:45,15.8,0,14.6,0,16.7,0,9.2,0,70.3,0
1/1/2004 23:00,15.8,0,14.6,0,16.7,0,9.2,0,70.8,0
1/1/2004 23:15,15.8,0,14.6,0,16.7,0,9,0,72.1,0
1/1/2004 23:30,15.8,0,14.5,0,16.7,0,8.7,0,73.3,0
1/1/2004 23:45,15.8,0,14.5,0,16.7,0,8.5,0,74.6,0
1/2/2004 0:00,15.8,0,14.5,0,16.7,0,8.3,0,75.8,0
1/2/2004 0:15,15.8,0,14.5,0,16.7,0,8,0,75.8,0
1/2/2004 0:30,15.7,0,14.5,0,16.7,0,7.8,0,75.8,0
1/2/2004 0:45,15.7,0,14.5,0,16.7,0,7.5,0,75.8,0
1/2/2004 1:00,15.7,0,14.5,0,16.7,0,7.3,0,75.8,0
1/2/2004 1:15,15.7,0,14.5,0,16.7,0,7.2,0,75.6,0
1/2/2004 1:30,15.7,0,14.5,0,16.7,0,7,0,75.3,0
1/2/2004 1:45,15.7,0,14.5,0,16.7,0,6.9,0,75.1,0
1/2/2004 2:00,15.7,0,14.5,0,16.7,0,6.8,0,74.8,0
1/2/2004 2:15,15.7,0,14.5,0,16.7,0,6.7,0,74.8,0
1/2/2004 2:30,15.6,0,14.5,0,16.7,0,6.6,0,74.8,0
1/2/2004 2:45,15.6,0,14.5,0,16.7,0,6.6,0,74.8,0
1/2/2004 3:00,15.6,0,14.5,0,16.7,0,6.5,0,74.8,0
1/2/2004 3:15,15.6,0,14.4,0,16.7,0,6.3,0,75.8,0
1/2/2004 3:30,15.6,0,14.4,0,16.7,0,6,0,76.8,0
1/2/2004 3:45,15.6,0,14.4,0,16.7,0,5.8,0,77.8,0
1/2/2004 4:00,15.5,0,14.4,0,16.7,0,5.6,0,78.8,0
1/2/2004 4:15,15.5,0,14.4,0,16.7,0,5.4,0,79.3,0
1/2/2004 4:30,15.5,0,14.4,0,16.7,0,5.2,0,79.8,0
1/2/2004 4:45,15.5,0,14.4,0,16.7,0,5.1,0,80.3,0
1/2/2004 5:00,15.5,0,14.4,0,16.7,0,4.9,0,80.8,0
1/2/2004 5:15,15.5,0,14.4,0,16.7,0,5,0,81.1,0
1/2/2004 5:30,15.4,0,14.4,0,16.7,0,5,0,81.3,0
1/2/2004 5:45,15.4,0,14.4,0,16.7,0,5.1,0,81.6,0
1/2/2004 6:00,15.4,0,14.4,0,16.7,0,5.2,0,81.8,0
1/2/2004 6:15,15.4,0,14.4,0,16.6,0,5.1,0,82.8,0
1/2/2004 6:30,15.4,0,14.3,0,16.7,0,5,0,83.8,0
1/2/2004 6:45,15.4,0,14.3,0,16.6,0,5,0,84.8,0
1/2/2004 7:00,15.3,0,14.3,0,16.6,0,4.9,0,85.8,0
1/2/2004 7:15,15.3,0,14.3,0,16.6,0,5.1,0,85.3,0
1/2/2004 7:30,15.3,0,14.3,0,16.6,0,5.3,0,84.8,0
1/2/2004 7:45,15.3,0,14.3,0,16.6,0,5.5,0,84.3,0
1/2/2004 8:00,15.3,0,14.3,0,16.6,0,5.7,0,83.8,0
1/2/2004 8:15,15.3,0,14.3,0,16.6,0,6.2,0,81.8,0
1/2/2004 8:30,15.3,0,14.4,0,16.6,0,6.7,0,79.8,0
1/2/2004 8:45,15.5,0,14.4,0,16.6,0,7.2,0,77.8,0
1/2/2004 9:00,15.7,0,14.4,0,16.6,0,7.7,0,75.8,0
1/2/2004 9:15,15.8,0,14.4,0,16.6,0,8.3,0,74.1,0
1/2/2004 9:30,16,0,14.5,0,16.6,0,9,0,72.3,0
1/2/2004 9:45,16.2,0,14.5,0,16.6,0,9.6,0,70.6,0
1/2/2004 10:00,16.4,0,14.6,0,16.6,0,10.3,0,68.8,0
1/2/2004 10:15,16.6,0,14.6,0,16.6,0,10.8,0,66.3,0
1/2/2004 10:30,16.8,0,14.6,0,16.6,0,11.2,0,63.8,0
1/2/2004 10:45,17,0,14.7,0,16.6,0,11.7,0,61.3,0
1/2/2004 11:00,17.1,0,14.7,0,16.6,0,12.2,0,58.8,0
1/2/2004 11:15,17.2,0,14.7,0,16.6,0,12.2,0,59,0
1/2/2004 11:30,17.3,0,14.8,0,16.6,0,12.2,0,59.3,0
1/2/2004 11:45,17.4,0,14.8,0,16.6,0,12.2,0,59.5,0
1/2/2004 12:00,17.4,0,14.8,0,16.6,0,12.2,0,59.8,0
1/2/2004 12:15,17.5,0,14.8,0,16.6,0,12.5,0,59.5,0
1/2/2004 12:30,17.5,0,14.8,0,16.6,0,12.8,0,59.3,0
1/2/2004 12:45,17.5,0,14.8,0,16.6,0,13.1,0,59,0
1/2/2004 13:00,17.4,0,14.9,0,16.6,0,13.4,0,58.8,0
1/2/2004 13:15,17.4,0,14.9,0,16.6,0,13.5,0,58.5,0
1/2/2004 13:30,17.3,0,14.9,0,16.6,0,13.6,0,58.3,0
1/2/2004 13:45,17.3,0,14.9,0,16.6,0,13.8,0,58,0
1/2/2004 14:00,17.3,0,14.9,0,16.6,0,13.9,0,57.8,0
1/2/2004 14:15,17.2,0,14.9,0,16.6,0,14.1,0,55.5,0
1/2/2004 14:30,17.2,0,14.9,0,16.6,0,14.3,0,53.3,0
1/2/2004 14:45,17.1,0,14.9,0,16.6,0,14.5,0,51,0
1/2/2004 15:00,17,0,14.8,0,16.6,0,14.7,0,48.8,0
1/2/2004 15:15,16.9,0,14.8,0,16.6,0,14.6,0,48.8,0
1/2/2004 15:30,16.9,0,14.8,0,16.6,0,14.4,0,48.8,0
1/2/2004 15:45,16.8,0,14.8,0,16.6,0,14.3,0,48.8,0
1/2/2004 16:00,16.8,0,14.8,0,16.6,0,14.2,0,48.8,0
1/2/2004 16:15,16.7,0,14.8,0,16.6,0,14,0,50.8,0
1/2/2004 16:30,16.7,0,14.8,0,16.6,0,13.8,0,52.8,0
1/2/2004 16:45,16.6,0,14.8,0,16.6,0,13.7,0,54.8,0
1/2/2004 17:00,16.6,0,14.8,0,16.6,0,13.5,0,56.8,0
1/2/2004 17:15,16.6,0,14.8,0,16.6,0,13.4,0,55.8,0
1/2/2004 17:30,16.5,0,14.8,0,16.6,0,13.3,0,54.8,0
1/2/2004 17:45,16.5,0,14.8,0,16.6,0,13.2,0,53.8,0
1/2/2004 18:00,16.5,0,14.7,0,16.6,0,13.1,0,52.8,0
1/2/2004 18:15,16.4,0,14.7,0,16.6,0,12.6,0,56.6,0
1/2/2004 18:30,16.4,0,14.7,0,16.6,0,12.1,0,60.3,0
1/2/2004 18:45,16.4,0,14.7,0,16.6,0,11.6,0,64.1,0
1/2/2004 19:00,16.4,0,14.7,0,16.6,0,11.1,0,67.8,0
1/2/2004 19:15,16.4,0,14.7,0,16.6,0,10.8,0,70.6,0
1/2/2004 19:30,16.4,0,14.7,0,16.6,0,10.6,0,73.3,0
1/2/2004 19:45,16.4,0,14.7,0,16.7,0,10.3,0,76.1,0
1/2/2004 20:00,16.4,0,14.7,0,16.7,0,10.1,0,78.8,0
1/2/2004 20:15,16.4,0,14.7,0,16.6,0,9.8,0,80.3,0
1/2/2004 20:30,16.4,0,14.7,0,16.6,0,9.5,0,81.8,0
1/2/2004 20:45,16.4,0,14.7,0,16.7,0,9.3,0,83.3,0
1/2/2004 21:00,16.4,0,14.7,0,16.7,0,9,0,84.8,0
1/2/2004 21:15,16.4,0,14.7,0,11.8,0,8.8,0,85.1,0
1/2/2004 21:30,16.4,0,14.7,0,11.8,0,8.7,0,85.3,0
1/2/2004 21:45,16.4,0,14.8,0,11.9,0,8.5,0,85.6,0
1/2/2004 22:00,16.5,0,14.7,0,12,0,8.4,0,85.8,0
1/2/2004 22:15,16.5,0,14.7,0,12,0,8.3,0,85.8,0
1/2/2004 22:30,16.5,0,14.7,0,12.1,0,8.2,0,85.8,0
1/2/2004 22:45,16.7,0,14.7,0,12.2,0,8.1,0,85.8,0
1/2/2004 23:00,17.1,0,14.7,0,10.4,0,8,0,85.8,0
1/2/2004 23:15,17.4,0,14.8,0,10.5,0,7.9,0,86.1,0
1/2/2004 23:30,17.9,0,14.8,0,10.2,0,7.9,0,86.3,0
1/2/2004 23:45,17.9,0,14.7,0,10.2,0,7.8,0,86.6,0
1/3/2004 0:00,17.9,0,14.7,0,10.3,0,7.8,0,86.8,0
1/3/2004 0:15,17.8,0,14.7,0,10.3,0,7.8,0,86.3,0
1/3/2004 0:30,17.7,0,14.7,0,10.4,0,7.7,0,85.8,0
1/3/2004 0:45,17.7,0,14.7,0,10.5,0,7.7,0,85.3,0
1/3/2004 1:00,17.6,0,14.7,0,11.5,0,7.7,0,84.8,0
1/3/2004 1:15,17.6,0,14.8,0,11.6,0,7.5,0,84.3,0
1/3/2004 1:30,17.6,0,15,0,11.7,0,7.2,0,83.8,0
1/3/2004 1:45,17.5,0,15.1,0,11.8,0,7,0,83.3,0
1/3/2004 2:00,17.5,0,15,0,11.9,0,6.8,0,82.8,0
1/3/2004 2:15,17.5,0,14.9,0,10.9,0,6.7,0,82.6,0
1/3/2004 2:30,17.5,0,14.9,0,11,0,6.6,0,82.3,0
1/3/2004 2:45,17.4,0,14.8,0,11.1,0,6.5,0,82.1,0
1/3/2004 3:00,17.4,0,14.8,0,11.1,0,6.4,0,81.8,0
1/3/2004 3:15,17.4,0,14.8,0,11.2,0,6.2,0,82.3,0
1/3/2004 3:30,17.4,0,14.8,0,11.3,0,6,0,82.8,0
1/3/2004 3:45,17.4,0,14.8,0,11.3,0,5.9,0,83.3,0
1/3/2004 4:00,17.4,0,14.8,0,11.4,0,5.7,0,83.8,0
1/3/2004 4:15,17.3,0,14.8,0,11.5,0,5.9,0,82.6,0
1/3/2004 4:30,17.3,0,14.7,0,11.5,0,6.1,0,81.3,0
1/3/2004 4:45,17.3,0,14.7,0,12.5,0,6.3,0,80.1,0
1/3/2004 5:00,17.3,0,14.7,0,12.6,0,6.5,0,78.8,0
1/3/2004 5:15,17.3,0,14.7,0,12.6,0,6.6,0,77.8,0
1/3/2004 5:30,17.3,0,14.7,0,11.1,0,6.7,0,76.8,0
1/3/2004 5:45,17.3,0,14.7,0,11.1,0,6.9,0,75.8,0
1/3/2004 6:00,17.2,0,14.7,0,11.2,0,7,0,74.8,0
1/3/2004 6:15,17.2,0,14.7,0,11.2,0,6.9,0,75.1,0
1/3/2004 6:30,17.2,0,14.7,0,11.3,0,6.7,0,75.3,0
1/3/2004 6:45,17.2,0,14.7,0,11.4,0,6.6,0,75.6,0
1/3/2004 7:00,17.2,0,14.7,0,11.4,0,6.5,0,75.8,0
1/3/2004 7:15,17.1,0,14.7,0,11.5,0,6.5,0,75.1,0
1/3/2004 7:30,17.1,0,14.7,0,11.5,0,6.5,0,74.3,0
1/3/2004 7:45,17.1,0,14.7,0,11.6,0,6.5,0,73.6,0
1/3/2004 8:00,17.1,0,14.7,0,11.6,0,6.5,0,72.8,0
1/3/2004 8:15,17.1,0,14.7,0,11.7,0,6.8,0,71.3,0
1/3/2004 8:30,17.2,0,14.7,0,10.5,0,7.2,0,69.8,0
1/3/2004 8:45,17.3,0,14.8,0,10.3,0,7.5,0,68.3,0
1/3/2004 9:00,17.5,0,14.8,0,10.3,0,7.9,0,66.8,0
1/3/2004 9:15,17.9,0,14.9,0,10.4,0,8.4,0,65.6,0
1/3/2004 9:30,18,0,15,0,10.4,0,9,0,64.3,0
1/3/2004 9:45,17.8,0,15,0,10.3,0,9.5,0,63.1,0
1/3/2004 10:00,17.7,0,15.1,0,10.3,0,10.1,0,61.8,0
1/3/2004 10:15,17.7,0,15.2,0,10.3,0,10.3,0,63.1,0
1/3/2004 10:30,17.6,0,15.2,0,10.4,0,10.5,0,64.3,0
1/3/2004 10:45,17.6,0,15.3,0,10.5,0,10.7,0,65.6,0
1/3/2004 11:00,17.6,0,15.4,0,10.5,0,10.9,0,66.8,0
1/3/2004 11:15,17.6,0,15.5,0,10.6,0,11,0,67.1,0
1/3/2004 11:30,17.7,0,15.6,0,10.7,0,11.1,0,67.3,0
1/3/2004 11:45,17.7,0,15.6,0,11.6,0,11.3,0,67.6,0
1/3/2004 12:00,17.7,0,15.5,0,10.7,0,11.4,0,67.8,0
1/3/2004 12:15,17.7,0,15.5,0,10.8,0,11.5,0,67.1,0
1/3/2004 12:30,17.7,0,15.5,0,10.9,0,11.7,0,66.3,0
1/3/2004 12:45,17.7,0,15.5,0,10.9,0,11.8,0,65.6,0
1/3/2004 13:00,17.7,0,15.5,0,11,0,12,0,64.8,0
1/3/2004 13:15,17.7,0,15.5,0,11.1,0,12.1,0,64.1,0
1/3/2004 13:30,17.7,0,15.5,0,11.2,0,12.1,0,63.3,0
1/3/2004 13:45,17.6,0,15.5,0,11.3,0,12.2,0,62.6,0
1/3/2004 14:00,17.6,0,15.5,0,11.4,0,12.3,0,61.8,0
1/3/2004 14:15,17.6,0,15.5,0,11.6,0,12.4,0,60.3,0
1/3/2004 14:30,17.5,0,15.5,0,11.7,0,12.4,0,58.8,0
1/3/2004 14:45,17.5,0,15.5,0,11.8,0,12.5,0,57.3,0
1/3/2004 15:00,17.5,0,15.5,0,12,0,12.6,0,55.8,0
1/3/2004 15:15,17.5,0,15.5,0,12.1,0,12.5,0,55.5,0
1/3/2004 15:30,17.5,0,15.4,0,12.3,0,12.4,0,55.3,0
1/3/2004 15:45,17.4,0,15.4,0,12.4,0,12.4,0,55,0
1/3/2004 16:00,17.4,0,15.4,0,12.6,0,12.3,0,54.8,0
1/3/2004 16:15,17.4,0,15.4,0,12.8,0,12.1,0,55.8,0
1/3/2004 16:30,17.3,0,15.4,0,12.9,0,12,0,56.8,0
1/3/2004 16:45,17.3,0,15.4,0,13.1,0,11.8,0,57.8,0
1/3/2004 17:00,17.3,0,15.3,0,13.3,0,11.7,0,58.8,0
1/3/2004 17:15,17.3,0,15.3,0,13.4,0,11.4,0,61.3,0
1/3/2004 17:30,17.3,0,15.3,0,13.6,0,11.2,0,63.8,0
1/3/2004 17:45,17.2,0,15.3,0,13.7,0,10.9,0,66.3,0
1/3/2004 18:00,17.2,0,15.3,0,13.9,0,10.7,0,68.8,0
1/3/2004 18:15,17.2,0,15.3,0,14,0,10.5,0,68.6,0
1/3/2004 18:30,17.2,0,15.3,0,14.2,0,10.3,0,68.3,0
1/3/2004 18:45,17.2,0,15.3,0,14.3,0,10.2,0,68.1,0
1/3/2004 19:00,17.1,0,15.3,0,14.4,0,10,0,67.8,0
1/3/2004 19:15,17.1,0,15.3,0,14.5,0,9.9,0,69.6,0
1/3/2004 19:30,17.1,0,15.3,0,14.6,0,9.7,0,71.3,0
1/3/2004 19:45,17.1,0,15.2,0,14.8,0,9.6,0,73.1,0
1/3/2004 20:00,17.1,0,15.2,0,14.8,0,9.5,0,74.8,0
1/3/2004 20:15,17.1,0,15.2,0,14.9,0,9.3,0,75.1,0
1/3/2004 20:30,17,0,15.2,0,15.1,0,9.2,0,75.3,0
1/3/2004 20:45,17,0,15.2,0,15.2,0,9,0,75.6,0
1/3/2004 21:00,17,0,15.2,0,15.3,0,8.9,0,75.8,0
1/3/2004 21:15,16.9,0,15.2,0,15.4,0,9,0,71.8,0
1/3/2004 21:30,16.9,0,15.2,0,15.5,0,9,0,67.8,0
1/3/2004 21:45,16.9,0,15.2,0,15.2,0,9.1,0,63.8,0
1/3/2004 22:00,16.9,0,15.4,0,15.2,0,9.2,0,59.8,0
1/3/2004 22:15,16.9,0,15.5,0,10.9,0,9.1,0,57.8,0
1/3/2004 22:30,16.9,0,15.6,0,10.9,0,9,0,55.8,0
1/3/2004 22:45,17,0,15.7,0,11,0,9,0,53.8,0
1/3/2004 23:00,17,0,15.7,0,11.1,0,8.9,0,51.8,0
1/3/2004 23:15,16.9,0,15.6,0,10.6,0,8.7,0,52,0
1/3/2004 23:30,16.9,0,15.5,0,10.6,0,8.5,0,52.3,0
1/3/2004 23:45,16.9,0,15.4,0,10.5,0,8.3,0,52.5,0
1/4/2004 0:00,16.9,0,15.4,0,10.5,0,8.1,0,52.8,0
1/4/2004 0:15,16.9,0,15.3,0,10.6,0,7.8,0,54,0
1/4/2004 0:30,16.9,0,15.3,0,10.7,0,7.5,0,55.3,0
1/4/2004 0:45,16.9,0,15.2,0,10.7,0,7.2,0,56.5,0
1/4/2004 1:00,16.8,0,15.2,0,10.8,0,6.9,0,57.8,0
1/4/2004 1:15,16.8,0,15.2,0,10.2,0,6.8,0,58,0
1/4/2004 1:30,16.7,0,15.2,0,10.4,0,6.7,0,58.3,0
1/4/2004 1:45,16.7,0,15.2,0,10.4,0,6.7,0,58.5,0
1/4/2004 2:00,16.6,0,15.1,0,10.5,0,6.6,0,58.8,0
1/4/2004 2:15,16.6,0,15.1,0,10.6,0,6.5,0,59.5,0
1/4/2004 2:30,16.6,0,15.1,0,10.6,0,6.3,0,60.3,0
1/4/2004 2:45,16.5,0,15.1,0,10.7,0,6.2,0,61,0
1/4/2004 3:00,16.5,0,15.1,0,10.8,0,6.1,0,61.8,0
1/4/2004 3:15,16.5,0,15.1,0,10.8,0,6,0,62.6,0
1/4/2004 3:30,16.5,0,15,0,10.9,0,5.9,0,63.3,0
1/4/2004 3:45,16.4,0,15,0,11,0,5.9,0,64.1,0
1/4/2004 4:00,16.4,0,15,0,11,0,5.8,0,64.8,0
1/4/2004 4:15,16.4,0,15,0,11.1,0,5.8,0,66.1,0
1/4/2004 4:30,16.4,0,15,0,11.2,0,5.7,0,67.3,0
1/4/2004 4:45,16.4,0,15,0,11.2,0,5.7,0,68.6,0
1/4/2004 5:00,16.4,0,14.9,0,11.2,0,5.7,0,69.8,0
1/4/2004 5:15,16.4,0,14.9,0,11.3,0,5.6,0,70.3,0
1/4/2004 5:30,16.4,0,14.9,0,11.3,0,5.4,0,70.8,0
1/4/2004 5:45,16.4,0,14.9,0,11.4,0,5.3,0,71.3,0
1/4/2004 6:00,16.3,0,14.9,0,11.5,0,5.2,0,71.8,0
1/4/2004 6:15,16.3,0,14.9,0,11.5,0,5.1,0,71.8,0
1/4/2004 6:30,16.3,0,14.9,0,11.6,0,5,0,71.8,0
1/4/2004 6:45,16.3,0,14.9,0,11.6,0,5,0,71.8,0
1/4/2004 7:00,16.3,0,14.9,0,11.7,0,4.9,0,71.8,0
1/4/2004 7:15,16.3,0,14.9,0,11.8,0,5.1,0,71.8,0
1/4/2004 7:30,16.2,0,14.9,0,11.8,0,5.3,0,71.8,0
1/4/2004 7:45,16.2,0,14.9,0,11.2,0,5.5,0,71.8,0
1/4/2004 8:00,16.2,0,14.9,0,10.4,0,5.7,0,71.8,0
1/4/2004 8:15,16.3,0,14.9,0,10.4,0,6.2,0,70.8,0
1/4/2004 8:30,16.3,0,14.9,0,10.5,0,6.7,0,69.8,0
1/4/2004 8:45,16.5,0,15,0,10.6,0,7.2,0,68.8,0
1/4/2004 9:00,16.8,0,15,0,10.6,0,7.7,0,67.8,0
1/4/2004 9:15,17.1,0,15.1,0,10.7,0,7.9,0,66.3,0
1/4/2004 9:30,17.3,0,15.1,0,10.8,0,8.1,0,64.8,0
1/4/2004 9:45,17.5,0,15.2,0,10.8,0,8.3,0,63.3,0
1/4/2004 10:00,17.7,0,15.3,0,11,0,8.5,0,61.8,0
1/4/2004 10:15,17.9,0,15.3,0,10,0,9,0,56.3,0
1/4/2004 10:30,17.9,0,15.3,0,10.1,0,9.4,0,50.8,0
1/4/2004 10:45,17.9,0,15.4,0,10.1,0,9.9,0,45.3,0
1/4/2004 11:00,17.9,0,15.3,0,10.1,0,10.4,0,39.8,0
1/4/2004 11:15,17.8,0,15.3,0,10.2,0,10.5,0,38.8,0
1/4/2004 11:30,17.7,0,15.4,0,10.2,0,10.6,0,37.8,0
1/4/2004 11:45,17.7,0,15.4,0,10.3,0,10.7,0,36.8,0
1/4/2004 12:00,17.7,0,15.4,0,10.4,0,10.8,0,35.8,0
1/4/2004 12:15,17.7,0,15.5,0,10.4,0,10.9,0,35,0
1/4/2004 12:30,17.7,0,16,0,10.4,0,11,0,34.3,0
1/4/2004 12:45,17.6,0,16.5,0,10.5,0,11.1,0,33.5,0
1/4/2004 13:00,17.5,0,17,0,10.6,0,11.2,0,32.8,0
1/4/2004 13:15,17.3,0,17.2,0,10.4,0,11.1,0,32.8,0
1/4/2004 13:30,17.3,0,17.2,0,10.5,0,10.9,0,32.8,0
1/4/2004 13:45,17.3,0,17.2,0,10.5,0,10.8,0,32.8,0
1/4/2004 14:00,17.4,0,17.1,0,10.6,0,10.7,0,32.8,0
1/4/2004 14:15,17.3,0,17.1,0,10.2,0,10.8,0,31.8,0
1/4/2004 14:30,17.3,0,17,0,10.3,0,10.8,0,30.8,0
1/4/2004 14:45,17.3,0,16.9,0,10.3,0,10.9,0,29.8,0
1/4/2004 15:00,17.3,0,16.9,0,10.4,0,11,0,28.8,0
1/4/2004 15:15,17.3,0,16.9,0,10.5,0,10.6,0,34.5,0
1/4/2004 15:30,17.2,0,16.9,0,10.5,0,10.1,0,40.3,0
1/4/2004 15:45,17.4,0,16.9,0,10.6,0,9.7,0,46,0
1/4/2004 16:00,17.7,0,16.8,0,10.7,0,9.3,0,51.8,0
1/4/2004 16:15,18,0,16.8,0,10.8,0,8.9,0,53.5,0
1/4/2004 16:30,18.1,0,16.8,0,10.8,0,8.5,0,55.3,0
1/4/2004 16:45,18,0,16.8,0,10.9,0,8.1,0,57,0
1/4/2004 17:00,17.9,0,16.8,0,11.2,0,7.7,0,58.8,0
1/4/2004 17:15,17.8,0,16.8,0,10.2,0,7.5,0,59,0
1/4/2004 17:30,17.7,0,16.7,0,10.2,0,7.4,0,59.3,0
1/4/2004 17:45,17.6,0,16.7,0,10.3,0,7.2,0,59.5,0
1/4/2004 18:00,17.6,0,16.7,0,10.3,0,7.1,0,59.8,0
1/4/2004 18:15,17.6,0,16.7,0,10.4,0,7.1,0,59.3,0
1/4/2004 18:30,17.5,0,16.7,0,10.5,0,7.1,0,58.8,0
1/4/2004 18:45,17.5,0,16.7,0,10.5,0,7.1,0,58.3,0
1/4/2004 19:00,17.5,0,16.6,0,10.6,0,7.1,0,57.8,0
1/4/2004 19:15,17.5,0,16.6,0,10.7,0,7.1,0,56.8,0
1/4/2004 19:30,17.5,0,16.6,0,10.8,0,7.1,0,55.8,0
1/4/2004 19:45,17.5,0,16.6,0,10.8,0,7.2,0,54.8,0
1/4/2004 20:00,17.4,0,16.6,0,10.9,0,7.2,0,53.8,0
1/4/2004 20:15,17.4,0,16.6,0,11,0,7.2,0,54,0
1/4/2004 20:30,17.2,0,16.5,0,11.1,0,7.1,0,54.3,0
1/4/2004 20:45,17.1,0,16.5,0,11.1,0,7.1,0,54.5,0
1/4/2004 21:00,17.2,0,16.5,0,11.2,0,7.1,0,54.8,0
1/4/2004 21:15,17.2,0,16.5,0,11.3,0,6.9,0,55.5,0
1/4/2004 21:30,17.2,0,16.5,0,11.4,0,6.8,0,56.3,0
1/4/2004 21:45,17.2,0,16.5,0,11.5,0,6.6,0,57,0
1/4/2004 22:00,17.3,0,16.5,0,11.5,0,6.5,0,57.8,0
1/4/2004 22:15,17.7,0,16.6,0,11,0,6.4,0,58,0
1/4/2004 22:30,18,0,16.6,0,10,0,6.2,0,58.3,0
1/4/2004 22:45,18.1,0,16.6,0,10.1,0,6.1,0,58.5,0
1/4/2004 23:00,18.2,0,16.6,0,9.9,0,6,0,58.8,0
1/4/2004 23:15,18.2,0,16.6,0,10.1,0,5.9,0,58.8,0
1/4/2004 23:30,18.2,0,16.6,0,10.2,0,5.7,0,58.8,0
1/4/2004 23:45,18.1,0,16.5,0,10.3,0,5.6,0,58.8,0
1/5/2004 0:00,18.1,0,16.5,0,10.4,0,5.5,0,58.8,0
1/5/2004 0:15,18.1,0,16.5,0,10.5,0,5.5,0,58.5,0
1/5/2004 0:30,18.1,0,16.5,0,10.6,0,5.6,0,58.3,0
1/5/2004 0:45,18.1,0,16.5,0,10.7,0,5.6,0,58,0
1/5/2004 1:00,18,0,16.5,0,10.9,0,5.7,0,57.8,0
1/5/2004 1:15,18,0,16.5,0,11,0,5.7,0,58.5,0
1/5/2004 1:30,18,0,16.5,0,11.1,0,5.6,0,59.3,0
1/5/2004 1:45,18,0,16.5,0,11.3,0,5.6,0,60,0
1/5/2004 2:00,18,0,16.5,0,11.4,0,5.6,0,60.8,0
1/5/2004 2:15,18,0,16.5,0,11.6,0,5.4,0,61.8,0
1/5/2004 2:30,18,0,16.5,0,11.8,0,5.2,0,62.8,0
1/5/2004 2:45,18,0,16.5,0,11.2,0,5.1,0,63.8,0
1/5/2004 3:00,17.9,0,16.4,0,11.2,0,4.9,0,64.8,0
1/5/2004 3:15,17.9,0,16.4,0,11.3,0,4.6,0,66.3,0
1/5/2004 3:30,17.9,0,16.4,0,11.4,0,4.3,0,67.8,0
1/5/2004 3:45,17.9,0,16.4,0,11.4,0,4.1,0,69.3,0
1/5/2004 4:00,17.9,0,16.4,0,11.5,0,3.8,0,70.8,0
1/5/2004 4:15,17.9,0,16.4,0,11.5,0,3.8,0,69.8,0
1/5/2004 4:30,17.9,0,16.4,0,12.4,0,3.7,0,68.8,0
1/5/2004 4:45,17.9,0,16.4,0,12.4,0,3.7,0,67.8,0
1/5/2004 5:00,17.8,0,16.3,0,10.3,0,3.7,0,66.8,0
1/5/2004 5:15,17.7,0,16.3,0,10.3,0,3.7,0,67.6,0
1/5/2004 5:30,17.5,0,16.3,0,10.4,0,3.7,0,68.3,0
1/5/2004 5:45,17.4,0,16.3,0,10.5,0,3.8,0,69.1,0
1/5/2004 6:00,17.4,0,16.3,0,10.5,0,3.8,0,69.8,0
1/5/2004 6:15,17.4,0,16.3,0,10.6,0,3.7,0,69.6,0
1/5/2004 6:30,17.3,0,16.3,0,10.7,0,3.7,0,69.3,0
1/5/2004 6:45,17.3,0,16.3,0,10.7,0,3.6,0,69.1,0
1/5/2004 7:00,17.3,0,16.2,0,10.8,0,3.6,0,68.8,0
1/5/2004 7:15,17.2,0,16.2,0,10.9,0,3.7,0,67.8,0
1/5/2004 7:30,17.2,0,16.2,0,11,0,3.9,0,66.8,0
1/5/2004 7:45,17.2,0,16.2,0,11,0,4,0,65.8,0
1/5/2004 8:00,17.2,0,16.2,0,11.1,0,4.2,0,64.8,0
1/5/2004 8:15,17.2,0,16.2,0,11.2,0,4.5,0,63.8,0
1/5/2004 8:30,17.1,0,16.2,0,11.3,0,4.7,0,62.8,0
1/5/2004 8:45,17.2,0,16.2,0,11.3,0,5,0,61.8,0
1/5/2004 9:00,17.5,0,16.2,0,11.4,0,5.3,0,60.8,0
1/5/2004 9:15,17.6,0,16.2,0,11.5,0,5.5,0,59.5,0
1/5/2004 9:30,17.6,0,16.2,0,11.6,0,5.6,0,58.3,0
1/5/2004 9:45,17.6,0,16.2,0,11.6,0,5.8,0,57,0
1/5/2004 10:00,17.5,0,16.2,0,11.7,0,6,0,55.8,0
1/5/2004 10:15,17.4,0,16.2,0,11.8,0,6.3,0,56.3,0
1/5/2004 10:30,17.3,0,16.1,0,11.9,0,6.5,0,56.8,0
1/5/2004 10:45,17.3,0,16.1,0,11.9,0,6.8,0,57.3,0
1/5/2004 11:00,17.3,0,16.1,0,12,0,7.1,0,57.8,0
1/5/2004 11:15,17.3,0,16.1,0,12.1,0,7.4,0,58,0
1/5/2004 11:30,17.3,0,16.1,0,12.2,0,7.7,0,58.3,0
1/5/2004 11:45,17.3,0,16.1,0,12.2,0,8,0,58.5,0
1/5/2004 12:00,17.3,0,16.1,0,12.3,0,8.3,0,58.8,0
1/5/2004 12:15,17.2,0,16.1,0,12.4,0,8.6,0,57.3,0
1/5/2004 12:30,17.2,0,16.1,0,12.4,0,8.9,0,55.8,0
1/5/2004 12:45,17.2,0,16.1,0,12.5,0,9.2,0,54.3,0
1/5/2004 13:00,17.2,0,16.1,0,12.6,0,9.5,0,52.8,0
1/5/2004 13:15,17.1,0,16.1,0,12.6,0,9.6,0,52.5,0
1/5/2004 13:30,17.2,0,16.1,0,12.7,0,9.6,0,52.3,0
1/5/2004 13:45,17.2,0,16.1,0,12.8,0,9.7,0,52,0
1/5/2004 14:00,17.2,0,16.1,0,12.8,0,9.8,0,51.8,0
1/5/2004 14:15,17.2,0,16.1,0,12.9,0,9.7,0,52,0
1/5/2004 14:30,17.2,0,16.1,0,12.9,0,9.5,0,52.3,0
1/5/2004 14:45,17.2,0,16.1,0,13,0,9.4,0,52.5,0
1/5/2004 15:00,17.2,0,16.1,0,13.1,0,9.3,0,52.8,0
1/5/2004 15:15,17.1,0,16.1,0,13.1,0,9.1,0,54,0
1/5/2004 15:30,17.1,0,16.1,0,13.2,0,8.8,0,55.3,0
1/5/2004 15:45,17.1,0,16.1,0,13.2,0,8.6,0,56.5,0
1/5/2004 16:00,17,0,16.1,0,13.3,0,8.4,0,57.8,0
1/5/2004 16:15,17,0,16.1,0,13.3,0,8.1,0,59.8,0
1/5/2004 16:30,17,0,16.1,0,13.4,0,7.8,0,61.8,0
1/5/2004 16:45,16.9,0,16.1,0,13.5,0,7.6,0,63.8,0
1/5/2004 17:00,16.9,0,16.1,0,13.5,0,7.3,0,65.8,0
1/5/2004 17:15,16.9,0,16.1,0,13.6,0,7.1,0,66.3,0
1/5/2004 17:30,16.9,0,16,0,13.6,0,6.9,0,66.8,0
1/5/2004 17:45,16.8,0,16,0,13.7,0,6.7,0,67.3,0
1/5/2004 18:00,16.8,0,16,0,13.7,0,6.5,0,67.8,0
1/5/2004 18:15,16.8,0,16,0,13.7,0,6.3,0,68.1,0
1/5/2004 18:30,16.8,0,16,0,13.8,0,6.2,0,68.3,0
1/5/2004 18:45,16.7,0,16,0,13.8,0,6,0,68.6,0
1/5/2004 19:00,16.7,0,16,0,13.9,0,5.9,0,68.8,0
1/5/2004 19:15,16.7,0,16,0,13.9,0,5.8,0,68.8,0
1/5/2004 19:30,16.7,0,16,0,14,0,5.8,0,68.8,0
1/5/2004 19:45,16.6,0,16,0,14,0,5.7,0,68.8,0
1/5/2004 20:00,16.6,0,16,0,14.1,0,5.7,0,68.8,0
1/5/2004 20:15,16.6,0,15.9,0,14.1,0,5.6,0,69.1,0
1/5/2004 20:30,16.6,0,15.9,0,14.1,0,5.6,0,69.3,0
1/5/2004 20:45,16.6,0,15.9,0,14.2,0,5.5,0,69.6,0
1/5/2004 21:00,16.5,0,15.9,0,14.2,0,5.5,0,69.8,0
1/5/2004 21:15,16.5,0,15.9,0,14.2,0,5.5,0,69.8,0
1/5/2004 21:30,16.5,0,15.9,0,14.3,0,5.4,0,69.8,0
1/5/2004 21:45,16.5,0,15.9,0,14.3,0,5.4,0,69.8,0
1/5/2004 22:00,16.5,0,15.9,0,14.4,0,5.4,0,69.8,0
1/5/2004 22:15,16.5,0,15.9,0,14.4,0,5.4,0,69.8,0
1/5/2004 22:30,16.4,0,15.8,0,14.4,0,5.3,0,69.8,0
1/5/2004 22:45,16.4,0,15.8,0,14.5,0,5.3,0,69.8,0
1/5/2004 23:00,16.4,0,15.8,0,14.5,0,5.3,0,69.8,0
1/5/2004 23:15,16.4,0,15.8,0,14.5,0,5.2,0,70.3,0
1/5/2004 23:30,16.4,0,15.8,0,14.5,0,5.1,0,70.8,0
1/5/2004 23:45,16.3,0,15.7,0,11.4,0,5,0,71.3,0
1/6/2004 0:00,16.4,0,15.7,0,11.2,0,4.9,0,71.8,0
1/6/2004 0:15,16.6,0,15.7,0,10.1,0,4.8,0,72.6,0
1/6/2004 0:30,16.6,0,15.7,0,10.2,0,4.7,0,73.3,0
1/6/2004 0:45,16.6,0,15.7,0,10.3,0,4.7,0,74.1,0
1/6/2004 1:00,16.6,0,15.7,0,10.3,0,4.6,0,74.8,0